EW6338 Weather Reports


Display with metric or nautical units.
time (UTC)temp
F
wind
direction
speed
MPH
gust
MPH
rain 1hr
in
rain 24hr
in
rain mn
in
humidity
%
barometer
mb
20260904210041 78 36 0.0 1.0 0.00 0.00 0.00 63 1006.7
20260904204534 80 11 0.0 2.0 0.00 0.00 0.00 63 1006.6
20260904203034 80 57 0.0 2.0 0.00 0.00 0.00 61 1006.7
20260904201533 81 299 0.0 4.0 0.00 0.00 0.00 63 1006.8
20260904194541 84 321 0.0 3.0 0.00 0.00 0.00 55 1006.4
20260904193045 84 310 0.0 2.0 0.00 0.00 0.00 54 1006.3
20260904191536 85 49 0.0 2.0 0.00 0.00 0.00 56 1006.2
20260904190031 84 158 0.0 2.0 0.00 0.00 0.00 59 1006.5
20260904184529 84 210 0.0 3.0 0.00 0.00 0.00 61 1006.7
20260904183028 83 39 0.0 4.0 0.00 0.00 0.00 61 1006.7
20260904181627 0 304 0.0 0.0 0.00 0.00 0.00 1006.7
20260904174524 83 171 0.0 2.0 0.00 0.00 0.00 62 1006.8
20260904173018 82 30 1.0 5.0 0.00 0.00 0.00 62 1006.8
20260904171514 82 63 0.0 2.0 0.00 0.00 0.00 64 1007.2
20260904170013 82 32 0.0 4.0 0.00 0.00 0.00 65 1007.3
20260904164511 82 319 0.0 3.0 0.00 0.00 0.00 68 1007.3
20260904163009 81 23 0.0 2.0 0.00 0.00 0.00 71 1007.3
20260904161505 81 18 0.0 2.0 0.00 0.00 0.00 72 1007.4
20260904160002 80 47 0.0 1.0 0.00 0.00 0.00 72 1007.6
20260904154600 79 342 0.0 2.0 0.00 0.00 0.00 74 1007.7
20260904153105 78 44 0.0 2.0 0.00 0.00 0.00 78 1007.9
20260904151551 76 8 0.0 2.0 0.00 0.00 0.00 83 1008.0
20260904150049 75 31 0.0 2.0 0.00 0.00 0.00 88 1008.1
20260904144545 74 295 0.0 2.0 0.00 0.00 0.00 91 1008.2
20260904143041 72 103 0.0 1.0 0.00 0.00 0.00 94 1008.2
20260904141553 71 12 0.0 2.0 0.00 0.00 0.00 96 1008.4
20260904140037 70 229 0.0 1.0 0.00 0.00 0.00 98 1008.4
20260904134531 68 238 0.0 3.0 0.00 0.00 0.00 99 1008.4
20260904133030 67 135 0.0 2.0 0.00 0.00 0.00 99 1008.5
20260904131526 67 238 0.0 1.0 0.00 0.00 0.00 99 1008.7
20260904130025 66 161 0.0 0.0 0.00 0.00 0.00 99 1008.6
20260904124523 66 176 0.0 0.0 0.00 0.01 0.00 99 1008.7
20260904123022 65 210 0.0 1.0 0.00 0.01 0.00 99 1008.7
20260904121521 65 211 0.0 0.0 0.00 0.01 0.00 99 1008.7
20260904120019 65 233 0.0 1.0 0.00 0.01 0.00 99 1008.8
20260904114535 65 194 0.0 0.0 0.00 0.03 0.00 99 1008.7
20260904113018 64 231 0.0 1.0 0.00 0.03 0.00 99 1008.6
20260904111517 64 222 0.0 0.0 0.00 0.03 0.00 99 1008.6
20260904110023 64 222 0.0 0.0 0.00 0.03 0.00 99 1008.5
20260904104516 64 222 0.0 0.0 0.00 0.12 0.00 99 1008.4
20260904103016 64 222 0.0 0.0 0.00 0.12 0.00 99 1008.3
20260904101519 64 222 0.0 0.0 0.00 0.12 0.00 99 1008.3
20260904100015 64 222 0.0 0.0 0.00 0.12 0.00 99 1008.2
20260904094514 64 222 0.0 0.0 0.00 0.20 0.00 99 1008.3
20260904093014 64 150 0.0 0.0 0.00 0.20 0.00 99 1008.3
20260904091513 64 214 0.0 2.0 0.00 0.20 0.00 99 1008.3
20260904090014 64 274 0.0 1.0 0.00 0.20 0.00 99 1008.3
20260904084512 64 274 0.0 2.0 0.00 0.30 0.00 99 1008.2
20260904083011 64 179 0.0 0.0 0.00 0.30 0.00 99 1008.4
20260904081509 64 270 0.0 0.0 0.00 0.30 0.00 99 1008.5
20260904080009 64 270 0.0 0.0 0.00 0.30 0.00 99 1008.4
20260904074510 64 270 0.0 0.0 0.00 0.30 0.00 98 1008.4
20260904073006 64 270 0.0 0.0 0.00 0.30 0.00 98 1008.5
20260904071520 64 270 0.0 0.0 0.00 0.30 0.00 98 1008.8
20260904070004 64 270 0.0 0.0 0.00 0.30 0.00 98 1008.7
20260904064503 64 270 0.0 0.0 0.00 0.30 0.00 98 1008.9
20260904063002 64 270 0.0 0.0 0.00 0.30 0.00 98 1009.0
20260904061603 64 270 0.0 0.0 0.00 0.30 0.00 98 1009.2
20260904060113 64 270 0.0 0.0 0.00 0.30 0.00 98 1009.4
20260904054601 64 270 0.0 0.0 0.00 0.30 0.00 98 1009.6
20260904053057 64 270 0.0 0.0 0.00 0.30 0.00 98 1009.7
20260904051555 64 270 0.0 0.0 0.00 0.30 0.00 98 1010.0
20260904050054 64 270 0.0 2.0 0.00 0.30 0.00 98 1009.7
20260904044555 64 79 0.0 0.0 0.00 0.30 0.00 98 1009.8
20260904043050 64 79 0.0 0.0 0.00 0.30 0.00 98 1010.1
20260904041548 65 79 0.0 0.0 0.00 0.30 0.00 98 1010.1
20260904040046 65 79 0.0 0.0 0.00 0.30 0.00 98 1010.3
20260904034559 65 79 0.0 0.0 0.00 0.30 0.30 98 1010.5
20260904033046 65 79 0.0 0.0 0.00 0.30 0.30 98 1010.6
20260904031544 64 79 0.0 0.0 0.00 0.30 0.30 98 1010.6
20260904030044 64 6 0.0 0.0 0.00 0.30 0.30 97 1010.7
20260904024544 64 108 0.0 0.0 0.00 0.30 0.30 97 1010.5
20260904023044 64 108 0.0 0.0 0.00 0.30 0.30 97 1010.4
20260904021547 64 108 0.0 0.0 0.00 0.30 0.30 97 1010.6
20260904020043 64 108 0.0 0.0 0.00 0.30 0.30 97 1010.8
20260904014546 64 108 0.0 0.0 0.00 0.30 0.30 97 1010.8
20260904013042 64 108 0.0 0.0 0.00 0.30 0.30 96 1011.0
20260904011543 64 108 0.0 0.0 0.00 0.30 0.30 96 1011.1
20260904010050 64 108 0.0 0.0 0.00 0.30 0.30 96 1010.9
20260904004556 65 108 0.0 0.0 0.00 0.30 0.30 95 1010.8
20260904003041 65 108 0.0 0.0 0.00 0.30 0.30 95 1010.5
20260904001539 65 108 0.0 0.0 0.00 0.30 0.30 94 1010.4
20260904000051 66 108 0.0 0.0 0.00 0.30 0.30 93 1010.5
20260903234543 67 108 0.0 0.0 0.00 0.30 0.30 92 1010.1
20260903233038 68 108 0.0 0.0 0.00 0.30 0.30 91 1010.0
20260903231538 69 108 0.0 0.0 0.00 0.30 0.30 89 1010.2
20260903230039 71 108 0.0 1.0 0.00 0.30 0.30 87 1010.1
20260903224538 74 302 0.0 0.0 0.00 0.30 0.30 84 1010.0
20260903223041 77 302 0.0 0.0 0.00 0.30 0.30 80 1010.6
20260903221533 78 302 0.0 1.0 0.00 0.30 0.30 81 1010.5
20260903220040 79 302 0.0 0.0 0.00 0.30 0.30 80 1010.5
20260903214535 79 302 0.0 0.0 0.00 0.30 0.30 81 1010.4
20260903213038 79 302 0.0 0.0 0.00 0.30 0.30 81 1010.5
20260903211556 78 302 0.0 0.0 0.00 0.30 0.30 81 1010.5